AAL1128 SKRG-KMIA

Flight info

Callsign AAL1128
Flight time 3h 12m
Altitude 35000
Route BUTAL3A BUTAL UP778 CTG UM779 ZEUSS VIICE2
Aircraft B738/M-SDE2E3FGHIRWXY/LB1

Departure

Time 2026-05-09 16:23
Airport Jose Maria Córdova International Airport (SKRG)

Arrival

Time 2026-05-09 19:35
Airport Miami International Airport (KMIA)
Time Latitude Longitude Altitude Speed Heading
2026-05-09 15:31 6.17289 -75.42773 7017 ft 0 kts 211°
2026-05-09 16:11 6.17290 -75.42772 7017 ft 2 kts 211°
2026-05-09 16:11 6.17313 -75.42760 7017 ft 4 kts 200°
2026-05-09 16:11 6.17339 -75.42753 7017 ft 4 kts 184°
2026-05-09 16:12 6.17366 -75.42755 7017 ft 4 kts 160°
2026-05-09 16:12 6.17387 -75.42768 7017 ft 4 kts 118°
2026-05-09 16:12 6.17389 -75.42772 7017 ft 1 kts 111°
2026-05-09 16:16 6.17380 -75.42751 7017 ft 5 kts 115°
2026-05-09 16:17 6.17360 -75.42708 7017 ft 8 kts 115°
2026-05-09 16:17 6.17332 -75.42648 7018 ft 11 kts 119°
2026-05-09 16:17 6.17262 -75.42618 7018 ft 13 kts 179°
2026-05-09 16:17 6.17166 -75.42618 7016 ft 15 kts 182°
2026-05-09 16:18 6.17059 -75.42605 7014 ft 17 kts 154°
2026-05-09 16:18 6.16949 -75.42538 7011 ft 20 kts 149°
2026-05-09 16:18 6.16808 -75.42483 7000 ft 24 kts 179°
2026-05-09 16:18 6.16625 -75.42482 6987 ft 28 kts 180°
2026-05-09 16:19 6.16419 -75.42480 6984 ft 31 kts 179°
2026-05-09 16:19 6.16197 -75.42477 6977 ft 32 kts 179°
2026-05-09 16:19 6.15976 -75.42476 6975 ft 31 kts 179°
2026-05-09 16:19 6.15763 -75.42475 6974 ft 30 kts 180°
2026-05-09 16:20 6.15561 -75.42473 6975 ft 28 kts 179°
2026-05-09 16:20 6.15371 -75.42473 6976 ft 26 kts 179°
2026-05-09 16:20 6.15193 -75.42472 6976 ft 25 kts 180°
2026-05-09 16:20 6.15026 -75.42471 6977 ft 23 kts 179°
2026-05-09 16:21 6.14909 -75.42468 6976 ft 9 kts 159°
2026-05-09 16:21 6.14885 -75.42416 6975 ft 9 kts 92°
2026-05-09 16:21 6.14891 -75.42357 6974 ft 8 kts 71°
2026-05-09 16:21 6.14928 -75.42315 6974 ft 8 kts 40°
2026-05-09 16:22 6.14980 -75.42299 6977 ft 8 kts 360°
2026-05-09 16:22 6.15059 -75.42299 6978 ft 28 kts 360°
2026-05-09 16:22 6.15479 -75.42303 6981 ft 93 kts 359°
2026-05-09 16:22 6.16330 -75.42310 6980 ft 150 kts 359°
2026-05-09 16:23 6.17532 -75.42322 7064 ft 191 kts 359°
2026-05-09 16:23 6.18856 -75.42343 7860 ft 186 kts 359°
2026-05-09 16:23 6.20206 -75.42363 8396 ft 204 kts 359°
2026-05-09 16:23 6.21607 -75.42374 9157 ft 196 kts
2026-05-09 16:24 6.22954 -75.42357 9859 ft 195 kts
2026-05-09 16:24 6.24280 -75.42328 10510 ft 195 kts
2026-05-09 16:24 6.25672 -75.42334 10932 ft 203 kts
2026-05-09 16:24 6.27101 -75.42364 11369 ft 208 kts
2026-05-09 16:25 6.28563 -75.42407 11786 ft 212 kts
2026-05-09 16:25 6.30064 -75.42431 12108 ft 220 kts
2026-05-09 16:25 6.31628 -75.42425 12461 ft 225 kts
2026-05-09 16:25 6.33130 -75.42415 13232 ft 208 kts
2026-05-09 16:26 6.34593 -75.42396 13595 ft 217 kts
2026-05-09 16:26 6.36157 -75.42378 13804 ft 225 kts
2026-05-09 16:26 6.37761 -75.42369 14002 ft 239 kts
2026-05-09 16:26 6.39465 -75.42354 14179 ft 251 kts
2026-05-09 16:27 6.41268 -75.42338 14336 ft 267 kts
2026-05-09 16:27 6.43162 -75.42321 14446 ft 285 kts
2026-05-09 16:27 6.45210 -75.42344 14557 ft 303 kts 359°
2026-05-09 16:27 6.47373 -75.42395 14886 ft 316 kts 359°
2026-05-09 16:28 6.49576 -75.42454 15530 ft 316 kts 359°
2026-05-09 16:28 6.51780 -75.42514 16206 ft 318 kts 358°
2026-05-09 16:28 6.53995 -75.42573 16849 ft 319 kts 358°
2026-05-09 16:28 6.56225 -75.42628 17432 ft 323 kts 358°
2026-05-09 16:29 6.58519 -75.42685 17668 ft 338 kts 358°
2026-05-09 16:29 6.60933 -75.42744 17800 ft 355 kts 358°
2026-05-09 16:29 6.63464 -75.42806 17921 ft 372 kts 358°
2026-05-09 16:29 6.66102 -75.42869 18047 ft 387 kts 358°
2026-05-09 16:30 6.68841 -75.42934 18132 ft 401 kts 358°
2026-05-09 16:30 6.71680 -75.43000 18258 ft 413 kts 358°
2026-05-09 16:30 6.74582 -75.43068 18571 ft 418 kts 358°
2026-05-09 16:30 6.77499 -75.43137 18994 ft 420 kts 358°
2026-05-09 16:31 6.80432 -75.43207 19387 ft 423 kts 358°
2026-05-09 16:31 6.83384 -75.43278 19740 ft 426 kts 358°
2026-05-09 16:31 6.86321 -75.43347 20116 ft 428 kts 358°
2026-05-09 16:31 6.89308 -75.43417 20491 ft 430 kts 358°
2026-05-09 16:32 6.92323 -75.43489 20801 ft 434 kts 358°
2026-05-09 16:32 6.94333 -75.43536 21011 ft 436 kts 358°
2026-05-09 16:32 6.98408 -75.43634 21472 ft 439 kts 358°
2026-05-09 16:32 7.01472 -75.43707 21794 ft 442 kts 358°
2026-05-09 16:33 7.04554 -75.43779 22088 ft 444 kts 358°
2026-05-09 16:33 7.07650 -75.43852 22406 ft 446 kts 358°
2026-05-09 16:33 7.10762 -75.43925 22702 ft 449 kts 358°
2026-05-09 16:33 7.13897 -75.44001 22962 ft 451 kts 358°
2026-05-09 16:34 7.17045 -75.44077 23233 ft 454 kts 358°
2026-05-09 16:34 7.20213 -75.44152 23515 ft 456 kts 358°
2026-05-09 16:34 7.23396 -75.44227 23789 ft 457 kts 358°
2026-05-09 16:34 7.26551 -75.44302 24006 ft 460 kts 358°
2026-05-09 16:35 7.29763 -75.44378 24239 ft 463 kts 358°
2026-05-09 16:35 7.33001 -75.44455 24473 ft 464 kts 358°
2026-05-09 16:35 7.36238 -75.44532 24748 ft 465 kts 358°
2026-05-09 16:35 7.39471 -75.44609 25032 ft 465 kts 358°
2026-05-09 16:36 7.42715 -75.44687 25234 ft 468 kts 358°
2026-05-09 16:36 7.52537 -75.44919 25978 ft 471 kts 359°
2026-05-09 16:37 7.55776 -75.44996 26199 ft 473 kts 359°
2026-05-09 16:37 7.59074 -75.45074 26405 ft 474 kts 359°
2026-05-09 16:37 7.62377 -75.45152 26602 ft 475 kts 359°
2026-05-09 16:37 7.65683 -75.45231 26818 ft 476 kts 359°
2026-05-09 16:38 7.69002 -75.45309 27011 ft 478 kts 359°
2026-05-09 16:38 7.72338 -75.45388 27212 ft 479 kts 359°
2026-05-09 16:38 7.74552 -75.45441 27343 ft 479 kts 359°
2026-05-09 16:38 7.78994 -75.45547 27601 ft 481 kts 359°
2026-05-09 16:39 7.82345 -75.45627 27788 ft 482 kts 359°
2026-05-09 16:39 7.84608 -75.45680 27893 ft 483 kts 360°
2026-05-09 16:39 7.87980 -75.45757 28038 ft 485 kts 360°
2026-05-09 16:39 7.91319 -75.45827 28194 ft 486 kts 360°
2026-05-09 16:40 7.94703 -75.45897 28368 ft 487 kts
2026-05-09 16:40 7.98093 -75.45965 28562 ft 487 kts
2026-05-09 16:42 8.21609 -75.46451 30410 ft 479 kts
2026-05-09 16:42 8.24900 -75.46518 30663 ft 479 kts
2026-05-09 16:42 8.28230 -75.46586 30928 ft 477 kts
2026-05-09 16:42 8.31551 -75.46655 31178 ft 477 kts
2026-05-09 16:43 8.34873 -75.46724 31450 ft 476 kts
2026-05-09 16:43 8.38184 -75.46793 31718 ft 475 kts
2026-05-09 16:43 8.41489 -75.46862 31990 ft 474 kts
2026-05-09 16:43 8.44781 -75.46931 32277 ft 473 kts 360°
2026-05-09 16:44 8.48074 -75.46997 32551 ft 472 kts 360°
2026-05-09 16:44 8.51361 -75.47065 32810 ft 471 kts 360°
2026-05-09 16:44 8.54602 -75.47133 33071 ft 470 kts 359°
2026-05-09 16:44 8.57873 -75.47200 33328 ft 470 kts 359°
2026-05-09 16:45 8.61141 -75.47269 33593 ft 469 kts 359°
2026-05-09 16:45 8.64405 -75.47337 33862 ft 468 kts 359°
2026-05-09 16:45 8.67656 -75.47405 34154 ft 466 kts 359°
2026-05-09 16:45 8.70891 -75.47474 34431 ft 464 kts 359°
2026-05-09 16:46 8.74116 -75.47541 34672 ft 464 kts 359°
2026-05-09 16:46 8.77345 -75.47608 34838 ft 464 kts 359°
2026-05-09 16:46 8.83833 -75.47742 34836 ft 465 kts 359°
2026-05-09 16:47 8.90280 -75.47876 34834 ft 461 kts 359°
2026-05-09 16:47 8.96617 -75.48009 34835 ft 455 kts 359°
2026-05-09 16:48 9.02954 -75.48140 34841 ft 456 kts 359°
2026-05-09 16:48 9.09351 -75.48273 34846 ft 462 kts 359°
2026-05-09 16:49 9.15832 -75.48407 34836 ft 466 kts 359°
2026-05-09 16:50 9.25531 -75.48609 34834 ft 467 kts 359°
2026-05-09 16:50 9.32024 -75.48746 34828 ft 466 kts 359°
2026-05-09 16:51 9.38515 -75.48880 34831 ft 464 kts 359°
2026-05-09 16:51 9.44956 -75.49016 34817 ft 461 kts 359°
2026-05-09 16:52 9.51319 -75.49147 34838 ft 459 kts 359°
2026-05-09 16:52 9.57700 -75.49280 34817 ft 458 kts 359°
2026-05-09 16:53 9.64062 -75.49409 34833 ft 456 kts 359°
2026-05-09 16:53 9.70423 -75.49545 34832 ft 455 kts 359°
2026-05-09 16:54 9.76726 -75.49679 34838 ft 454 kts 359°
2026-05-09 16:54 9.83058 -75.49811 34832 ft 454 kts 359°
2026-05-09 16:55 9.89394 -75.49942 34836 ft 456 kts 359°
2026-05-09 16:55 9.95704 -75.50075 34830 ft 457 kts 359°
2026-05-09 16:56 10.02073 -75.50208 34838 ft 458 kts 359°
2026-05-09 16:56 10.08462 -75.50341 34832 ft 459 kts 359°
2026-05-09 16:57 10.14862 -75.50475 34834 ft 459 kts 359°
2026-05-09 16:57 10.21253 -75.50771 34816 ft 460 kts 352°
2026-05-09 16:58 10.27414 -75.52373 34836 ft 461 kts 344°
2026-05-09 16:58 10.33579 -75.54209 34837 ft 461 kts 344°
2026-05-09 16:59 10.39756 -75.56018 34836 ft 461 kts 345°
2026-05-09 16:59 10.45932 -75.57796 34829 ft 461 kts 345°
2026-05-09 17:00 10.52092 -75.59557 34933 ft 462 kts 345°
2026-05-09 17:00 10.55188 -75.60443 35158 ft 462 kts 345°
2026-05-09 17:00 10.58275 -75.61326 35443 ft 459 kts 345°
2026-05-09 17:00 10.61340 -75.62203 35741 ft 456 kts 345°
2026-05-09 17:01 10.64395 -75.63080 35824 ft 458 kts 345°
2026-05-09 17:01 10.70542 -75.64845 35827 ft 458 kts 344°
2026-05-09 17:02 10.76664 -75.66607 35830 ft 456 kts 345°
2026-05-09 17:02 10.82764 -75.68355 35832 ft 454 kts 345°
2026-05-09 17:03 10.88834 -75.70095 35832 ft 452 kts 345°
2026-05-09 17:05 11.13002 -75.76968 35836 ft 452 kts 345°
2026-05-09 17:05 11.19078 -75.78649 35837 ft 453 kts 345°
2026-05-09 17:06 11.25130 -75.80331 35826 ft 453 kts 345°
2026-05-09 17:06 11.31232 -75.82031 35811 ft 455 kts 345°
2026-05-09 17:07 11.37339 -75.83734 35811 ft 455 kts 345°
2026-05-09 17:07 11.43461 -75.85441 35816 ft 455 kts 345°
2026-05-09 17:08 11.49586 -75.87148 35817 ft 456 kts 346°
2026-05-09 17:08 11.58774 -75.89709 35817 ft 456 kts 346°
2026-05-09 17:09 11.64858 -75.91410 35814 ft 456 kts 346°
2026-05-09 17:09 11.70976 -75.93120 35813 ft 455 kts 346°
2026-05-09 17:10 11.77090 -75.94828 35813 ft 454 kts 346°
2026-05-09 17:10 11.83187 -75.96554 35812 ft 454 kts 345°
2026-05-09 17:11 11.89233 -75.98281 35815 ft 453 kts 345°
2026-05-09 17:11 11.95320 -76.00024 35822 ft 453 kts 345°
2026-05-09 17:12 12.01393 -76.01760 35826 ft 452 kts 345°
2026-05-09 17:12 12.07459 -76.03496 35823 ft 453 kts 345°
2026-05-09 17:13 12.13488 -76.05219 35824 ft 453 kts 345°
2026-05-09 17:13 12.19564 -76.06957 35838 ft 453 kts 345°
2026-05-09 17:14 12.25653 -76.08699 35840 ft 453 kts 345°
2026-05-09 17:14 12.31681 -76.10423 35842 ft 453 kts 345°
2026-05-09 17:15 12.37752 -76.12157 35850 ft 452 kts 345°
2026-05-09 17:15 12.43822 -76.13893 35855 ft 453 kts 345°
2026-05-09 17:17 12.68202 -76.20875 35850 ft 455 kts 345°
2026-05-09 17:18 12.74307 -76.22625 35857 ft 456 kts 345°
2026-05-09 17:18 12.80380 -76.24366 35865 ft 456 kts 345°
2026-05-09 17:19 12.86496 -76.26122 35862 ft 455 kts 345°
2026-05-09 17:19 12.92604 -76.27877 35864 ft 455 kts 345°
2026-05-09 17:20 12.98704 -76.29631 35873 ft 455 kts 345°
2026-05-09 17:20 13.04803 -76.31382 35877 ft 455 kts 345°
2026-05-09 17:21 13.10897 -76.33133 35883 ft 455 kts 345°
2026-05-09 17:21 13.16993 -76.34887 35866 ft 455 kts 345°
2026-05-09 17:22 13.23086 -76.36643 35884 ft 455 kts 345°
2026-05-09 17:22 13.29157 -76.38392 35883 ft 454 kts 345°
2026-05-09 17:23 13.35251 -76.40151 35891 ft 454 kts 345°
2026-05-09 17:23 13.41339 -76.41905 35889 ft 454 kts 345°
2026-05-09 17:25 13.59600 -76.47176 35917 ft 455 kts 345°
2026-05-09 17:25 13.65701 -76.48940 35917 ft 455 kts 345°
2026-05-09 17:26 13.71794 -76.50702 35925 ft 455 kts 345°
2026-05-09 17:26 13.77894 -76.52466 35926 ft 455 kts 345°
2026-05-09 17:27 13.83954 -76.54221 35928 ft 455 kts 345°
2026-05-09 17:27 13.90058 -76.55988 35925 ft 455 kts 345°
2026-05-09 17:28 13.95127 -76.57456 35935 ft 455 kts 345°
2026-05-09 17:28 14.01225 -76.59227 35934 ft 455 kts 345°
2026-05-09 17:29 14.07317 -76.60993 35934 ft 455 kts 345°
2026-05-09 17:29 14.13417 -76.62763 35934 ft 455 kts 345°
2026-05-09 17:30 14.19510 -76.64532 35954 ft 454 kts 345°
2026-05-09 17:30 14.25601 -76.66303 35943 ft 455 kts 345°
2026-05-09 17:31 14.31695 -76.68073 35944 ft 455 kts 345°
2026-05-09 17:32 14.46909 -76.72499 35955 ft 455 kts 345°
2026-05-09 17:33 14.53015 -76.74276 35953 ft 456 kts 345°
2026-05-09 17:33 14.59132 -76.76060 35953 ft 456 kts 345°
2026-05-09 17:34 14.65240 -76.77842 35954 ft 456 kts 345°
2026-05-09 17:35 14.86587 -76.84075 35951 ft 456 kts 345°
2026-05-09 17:36 14.92696 -76.85863 35945 ft 456 kts 345°
2026-05-09 17:36 14.98816 -76.87653 35954 ft 457 kts 345°
2026-05-09 17:37 15.04945 -76.89242 35958 ft 457 kts 348°
2026-05-09 17:37 15.11162 -76.90637 35951 ft 457 kts 348°
2026-05-09 17:38 15.17374 -76.92027 35955 ft 457 kts 348°
2026-05-09 17:39 15.26689 -76.94164 35953 ft 457 kts 348°
2026-05-09 17:39 15.32910 -76.95604 35952 ft 457 kts 348°
2026-05-09 17:40 15.39125 -76.97046 35956 ft 457 kts 348°
2026-05-09 17:40 15.45290 -76.98475 35961 ft 457 kts 348°
2026-05-09 17:41 15.51499 -76.99912 35965 ft 457 kts 348°
2026-05-09 17:41 15.57708 -77.01352 35963 ft 457 kts 348°
2026-05-09 17:42 15.63926 -77.02796 35963 ft 458 kts 348°
2026-05-09 17:42 15.70150 -77.04241 35966 ft 458 kts 348°
2026-05-09 17:43 15.76370 -77.05688 35963 ft 458 kts 348°
2026-05-09 17:43 15.82547 -77.07125 35963 ft 458 kts 348°
2026-05-09 17:44 15.88770 -77.08573 35970 ft 457 kts 348°
2026-05-09 17:44 15.94984 -77.10020 35972 ft 457 kts 348°
2026-05-09 17:45 16.01199 -77.11469 35976 ft 457 kts 348°
2026-05-09 17:45 16.07421 -77.12920 35970 ft 458 kts 348°
2026-05-09 17:46 16.13636 -77.14370 35970 ft 458 kts 348°
2026-05-09 17:46 16.19814 -77.15813 35974 ft 458 kts 348°
2026-05-09 17:47 16.26035 -77.17266 35973 ft 458 kts 348°
2026-05-09 17:47 16.32258 -77.18722 35971 ft 458 kts 348°
2026-05-09 17:48 16.38490 -77.20180 35976 ft 459 kts 348°
2026-05-09 17:48 16.44724 -77.21640 35971 ft 460 kts 348°
2026-05-09 17:49 16.50966 -77.23102 35978 ft 460 kts 348°
2026-05-09 17:49 16.57216 -77.24563 35988 ft 459 kts 348°
2026-05-09 17:50 16.63450 -77.26022 35979 ft 459 kts 348°
2026-05-09 17:50 16.72767 -77.28205 35979 ft 459 kts 348°
2026-05-09 17:51 16.79000 -77.29666 35982 ft 459 kts 348°
2026-05-09 17:51 16.85204 -77.31125 35982 ft 459 kts 348°
2026-05-09 17:52 16.91445 -77.32590 35982 ft 459 kts 348°
2026-05-09 17:52 16.97682 -77.34056 35980 ft 459 kts 348°
2026-05-09 17:53 17.03918 -77.35522 35986 ft 459 kts 348°
2026-05-09 17:53 17.10154 -77.36991 35982 ft 459 kts 348°
2026-05-09 17:54 17.16392 -77.38459 35982 ft 460 kts 348°
2026-05-09 17:54 17.22600 -77.39922 35979 ft 459 kts 348°
2026-05-09 17:55 17.28840 -77.41396 35981 ft 458 kts 348°
2026-05-09 17:55 17.35067 -77.42866 35982 ft 458 kts 348°
2026-05-09 17:56 17.41287 -77.44333 35981 ft 458 kts 348°
2026-05-09 17:57 17.50568 -77.46529 35978 ft 457 kts 348°
2026-05-09 17:57 17.56783 -77.48001 35983 ft 457 kts 348°
2026-05-09 17:58 17.62989 -77.49472 35981 ft 457 kts 348°
2026-05-09 17:58 17.69160 -77.50934 35984 ft 457 kts 348°
2026-05-09 17:59 17.75382 -77.52409 35980 ft 458 kts 348°
2026-05-09 17:59 17.81600 -77.53886 35980 ft 458 kts 348°
2026-05-09 18:00 17.87825 -77.55367 35987 ft 458 kts 348°
2026-05-09 18:00 17.94017 -77.56839 35984 ft 459 kts 348°
2026-05-09 18:01 18.00249 -77.58320 35979 ft 459 kts 348°
2026-05-09 18:01 18.06484 -77.59805 35981 ft 458 kts 348°
2026-05-09 18:02 18.12668 -77.61279 35975 ft 458 kts 348°
2026-05-09 18:02 18.18890 -77.62763 35976 ft 458 kts 348°
2026-05-09 18:03 18.25113 -77.64248 35970 ft 458 kts 348°
2026-05-09 18:03 18.31335 -77.65734 35972 ft 458 kts 348°
2026-05-09 18:04 18.37542 -77.67220 35972 ft 457 kts 348°
2026-05-09 18:04 18.43747 -77.68703 35973 ft 457 kts 348°
2026-05-09 18:05 18.49957 -77.70189 35975 ft 457 kts 348°
2026-05-09 18:05 18.56132 -77.71670 35971 ft 457 kts 348°
2026-05-09 18:06 18.62343 -77.73158 35981 ft 458 kts 348°
2026-05-09 18:06 18.68566 -77.74652 35974 ft 458 kts 348°
2026-05-09 18:07 18.74791 -77.76146 35976 ft 458 kts 348°
2026-05-09 18:07 18.80974 -77.77630 35968 ft 458 kts 348°
2026-05-09 18:08 18.87192 -77.79125 35978 ft 458 kts 348°
2026-05-09 18:08 18.93420 -77.80626 35966 ft 458 kts 348°
2026-05-09 18:09 18.99589 -77.82112 35973 ft 457 kts 348°
2026-05-09 18:09 19.05790 -77.83605 35968 ft 456 kts 347°
2026-05-09 18:10 19.11988 -77.85100 35976 ft 456 kts 347°
2026-05-09 18:10 19.18188 -77.86597 35970 ft 457 kts 347°
2026-05-09 18:11 19.24357 -77.88085 35975 ft 457 kts 347°
2026-05-09 18:11 19.30565 -77.89586 35980 ft 457 kts 347°
2026-05-09 18:12 19.36769 -77.91088 35979 ft 457 kts 347°
2026-05-09 18:12 19.42969 -77.92590 35982 ft 457 kts 347°
2026-05-09 18:13 19.49174 -77.94093 35982 ft 457 kts 347°
2026-05-09 18:13 19.55390 -77.95602 35980 ft 458 kts 347°
2026-05-09 18:14 19.61608 -77.97111 35984 ft 458 kts 347°
2026-05-09 18:14 19.67780 -77.98611 35982 ft 458 kts 347°
2026-05-09 18:15 19.74033 -78.00131 35990 ft 458 kts 347°
2026-05-09 18:15 19.80204 -78.01632 35987 ft 457 kts 347°
2026-05-09 18:16 19.86462 -78.02935 35997 ft 458 kts 350°
2026-05-09 18:16 19.92759 -78.04025 35987 ft 458 kts 351°
2026-05-09 18:17 19.99042 -78.05114 35993 ft 457 kts 350°
2026-05-09 18:17 20.05282 -78.06225 35992 ft 457 kts 350°
2026-05-09 18:18 20.11556 -78.07357 35999 ft 456 kts 350°
2026-05-09 18:18 20.16772 -78.08300 36002 ft 457 kts 350°
2026-05-09 18:19 20.23060 -78.09438 36001 ft 457 kts 350°
2026-05-09 18:19 20.32453 -78.11144 36002 ft 457 kts 350°
2026-05-09 18:20 20.38736 -78.12286 36003 ft 458 kts 350°
2026-05-09 18:20 20.44992 -78.13420 36009 ft 458 kts 350°
2026-05-09 18:21 20.51275 -78.14562 36009 ft 458 kts 350°
2026-05-09 18:21 20.57561 -78.15705 36012 ft 458 kts 349°
2026-05-09 18:22 20.63851 -78.16849 36012 ft 458 kts 349°
2026-05-09 18:22 20.70140 -78.17997 36011 ft 458 kts 349°
2026-05-09 18:23 20.76390 -78.19137 36006 ft 458 kts 349°
2026-05-09 18:23 20.82673 -78.20284 36015 ft 458 kts 349°
2026-05-09 18:24 20.88953 -78.21429 36019 ft 457 kts 349°
2026-05-09 18:25 20.98371 -78.23151 36019 ft 457 kts 349°
2026-05-09 18:25 21.04642 -78.24298 36018 ft 457 kts 349°
2026-05-09 18:26 21.10873 -78.25441 36017 ft 456 kts 349°
2026-05-09 18:26 21.17147 -78.26592 36023 ft 456 kts 349°
2026-05-09 18:27 21.23410 -78.27742 36016 ft 456 kts 349°
2026-05-09 18:27 21.29664 -78.28890 36019 ft 455 kts 348°
2026-05-09 18:28 21.35876 -78.30031 36020 ft 455 kts 348°
2026-05-09 18:28 21.42108 -78.31180 36019 ft 454 kts 348°
2026-05-09 18:29 21.48336 -78.32325 36018 ft 454 kts 348°
2026-05-09 18:29 21.54557 -78.33474 36021 ft 454 kts 348°
2026-05-09 18:30 21.60778 -78.34622 36016 ft 453 kts 348°
2026-05-09 18:30 21.67003 -78.35770 36024 ft 454 kts 348°
2026-05-09 18:31 21.73240 -78.36923 36012 ft 454 kts 348°
2026-05-09 18:31 21.79463 -78.38075 36017 ft 453 kts 348°
2026-05-09 18:32 21.85675 -78.39228 36022 ft 453 kts 348°
2026-05-09 18:32 21.91885 -78.40378 36018 ft 452 kts 348°
2026-05-09 18:33 21.98062 -78.41522 36020 ft 452 kts 348°
2026-05-09 18:33 22.04263 -78.42674 36018 ft 452 kts 348°
2026-05-09 18:34 22.10458 -78.43825 36020 ft 452 kts 348°
2026-05-09 18:34 22.16655 -78.44982 36013 ft 452 kts 348°
2026-05-09 18:35 22.22857 -78.46135 36011 ft 452 kts 348°
2026-05-09 18:35 22.29069 -78.47291 36009 ft 453 kts 348°
2026-05-09 18:36 22.35235 -78.48442 36009 ft 452 kts 348°
2026-05-09 18:36 22.41452 -78.49600 36011 ft 453 kts 348°
2026-05-09 18:37 22.47665 -78.50763 36010 ft 454 kts 348°
2026-05-09 18:37 22.53896 -78.51929 36010 ft 454 kts 348°
2026-05-09 18:38 22.60129 -78.53103 36010 ft 455 kts 347°
2026-05-09 18:38 22.66373 -78.54281 36010 ft 455 kts 347°
2026-05-09 18:40 22.91302 -78.58974 36011 ft 455 kts 347°
2026-05-09 18:41 22.97493 -78.60139 36019 ft 455 kts 347°
2026-05-09 18:41 23.03737 -78.61317 36014 ft 455 kts 347°
2026-05-09 18:42 23.09966 -78.62493 36018 ft 454 kts 347°
2026-05-09 18:42 23.16190 -78.63667 36020 ft 454 kts 347°
2026-05-09 18:43 23.22419 -78.64843 36020 ft 454 kts 347°
2026-05-09 18:43 23.28650 -78.66021 36017 ft 454 kts 347°
2026-05-09 18:44 23.34834 -78.67193 36022 ft 453 kts 347°
2026-05-09 18:44 23.41041 -78.68370 36019 ft 454 kts 347°
2026-05-09 18:45 23.47264 -78.69550 36020 ft 452 kts 347°
2026-05-09 18:45 23.53475 -78.70727 36028 ft 452 kts 347°
2026-05-09 18:46 23.59647 -78.71899 36028 ft 452 kts 347°
2026-05-09 18:46 23.65859 -78.73082 36026 ft 452 kts 347°
2026-05-09 18:47 23.72062 -78.74264 36030 ft 452 kts 346°
2026-05-09 18:47 23.78276 -78.75450 36028 ft 453 kts 346°
2026-05-09 18:48 23.84447 -78.76628 36026 ft 452 kts 346°
2026-05-09 18:48 23.90664 -78.77814 36028 ft 453 kts 346°
2026-05-09 18:49 23.96876 -78.79001 36030 ft 453 kts 346°
2026-05-09 18:49 24.02720 -78.81200 36062 ft 441 kts 325°
2026-05-09 18:50 24.07937 -78.84755 36047 ft 442 kts 325°
2026-05-09 18:50 24.13140 -78.88262 36031 ft 442 kts 325°
2026-05-09 18:51 24.18405 -78.91761 36043 ft 442 kts 325°
2026-05-09 18:51 24.23675 -78.95248 36042 ft 442 kts 325°
2026-05-09 18:52 24.28952 -78.98743 36038 ft 442 kts 325°
2026-05-09 18:52 24.34185 -79.02217 36034 ft 442 kts 325°
2026-05-09 18:53 24.39460 -79.05720 36037 ft 442 kts 325°
2026-05-09 18:53 24.44734 -79.09225 35817 ft 447 kts 325°
2026-05-09 18:53 24.47410 -79.11007 35268 ft 449 kts 325°
2026-05-09 18:54 24.50080 -79.12782 34561 ft 449 kts 325°
2026-05-09 18:54 24.52750 -79.14559 33877 ft 449 kts 325°
2026-05-09 18:54 24.55423 -79.16340 33163 ft 450 kts 325°
2026-05-09 18:54 24.58099 -79.18124 32425 ft 451 kts 325°
2026-05-09 18:55 24.60786 -79.19916 31659 ft 452 kts 325°
2026-05-09 18:55 24.63430 -79.21681 31130 ft 448 kts 325°
2026-05-09 18:55 24.66079 -79.23450 30582 ft 444 kts 325°
2026-05-09 18:55 24.68713 -79.25210 30053 ft 440 kts 325°
2026-05-09 18:56 24.71319 -79.26953 29521 ft 435 kts 325°
2026-05-09 18:56 24.73895 -79.28677 28988 ft 431 kts 325°
2026-05-09 18:56 24.76445 -79.30385 28456 ft 427 kts 325°
2026-05-09 18:56 24.78977 -79.32080 27927 ft 423 kts 325°
2026-05-09 18:57 24.81485 -79.33760 27397 ft 419 kts 325°
2026-05-09 18:57 24.83968 -79.35424 26880 ft 416 kts 325°
2026-05-09 18:57 24.86400 -79.37053 26357 ft 412 kts 325°
2026-05-09 18:57 24.88838 -79.38688 25837 ft 409 kts 325°
2026-05-09 18:58 24.91258 -79.40312 25321 ft 406 kts 325°
2026-05-09 18:58 24.93677 -79.41936 24808 ft 403 kts 325°
2026-05-09 18:58 24.96058 -79.43536 24301 ft 399 kts 325°
2026-05-09 18:58 24.98421 -79.45125 23796 ft 396 kts 325°
2026-05-09 18:59 25.00763 -79.46700 23305 ft 393 kts 325°
2026-05-09 18:59 25.03065 -79.48251 22818 ft 391 kts 325°
2026-05-09 18:59 25.05383 -79.49813 22327 ft 389 kts 325°
2026-05-09 18:59 25.07688 -79.51364 21986 ft 385 kts 325°
2026-05-09 19:00 25.09975 -79.52903 21784 ft 384 kts 325°
2026-05-09 19:00 25.14518 -79.55964 20841 ft 379 kts 325°
2026-05-09 19:00 25.16765 -79.57479 20376 ft 376 kts 325°
2026-05-09 19:01 25.18990 -79.58981 19931 ft 374 kts 325°
2026-05-09 19:01 25.21201 -79.60474 19482 ft 371 kts 325°
2026-05-09 19:01 25.23400 -79.61958 19034 ft 369 kts 325°
2026-05-09 19:01 25.25584 -79.63435 18588 ft 367 kts 325°
2026-05-09 19:02 25.27756 -79.64904 18147 ft 364 kts 325°
2026-05-09 19:02 25.29884 -79.66345 17721 ft 364 kts 325°
2026-05-09 19:02 25.32049 -79.67811 17278 ft 365 kts 325°
2026-05-09 19:02 25.34217 -79.69278 16832 ft 365 kts 326°
2026-05-09 19:03 25.36377 -79.70740 16389 ft 363 kts 326°
2026-05-09 19:03 25.38495 -79.72234 15941 ft 358 kts 319°
2026-05-09 19:03 25.40145 -79.74236 15511 ft 350 kts 302°
2026-05-09 19:03 25.41524 -79.76442 15092 ft 348 kts 302°
2026-05-09 19:04 25.42894 -79.78643 14665 ft 346 kts 302°
2026-05-09 19:04 25.44266 -79.80821 14239 ft 344 kts 302°
2026-05-09 19:04 25.45641 -79.82978 13801 ft 342 kts 302°
2026-05-09 19:04 25.47012 -79.85118 13407 ft 340 kts 302°
2026-05-09 19:05 25.48385 -79.87260 12974 ft 342 kts 302°
2026-05-09 19:05 25.49297 -79.88685 12684 ft 343 kts 302°
2026-05-09 19:05 25.51120 -79.91528 12117 ft 341 kts 302°
2026-05-09 19:05 25.52487 -79.93663 11698 ft 338 kts 302°
2026-05-09 19:06 25.53844 -79.95783 11330 ft 335 kts 303°
2026-05-09 19:06 25.55173 -79.97861 11196 ft 325 kts 302°
2026-05-09 19:06 25.56464 -79.99879 11049 ft 316 kts 303°
2026-05-09 19:06 25.57295 -80.01179 10957 ft 310 kts 303°
2026-05-09 19:07 25.58520 -80.03095 10805 ft 301 kts 303°
2026-05-09 19:07 25.59727 -80.04988 10480 ft 300 kts 303°
2026-05-09 19:07 25.61313 -80.07476 10076 ft 297 kts 303°
2026-05-09 19:07 25.62502 -80.09338 9773 ft 295 kts 303°
2026-05-09 19:08 25.63686 -80.11195 9454 ft 294 kts 304°
2026-05-09 19:08 25.64483 -80.12444 9222 ft 294 kts 304°
2026-05-09 19:08 25.65639 -80.14302 9043 ft 291 kts 300°
2026-05-09 19:08 25.66534 -80.16265 9014 ft 286 kts 293°
2026-05-09 19:09 25.67340 -80.18269 8990 ft 275 kts 293°
2026-05-09 19:09 25.68103 -80.20137 8857 ft 268 kts 294°
2026-05-09 19:09 25.68879 -80.22011 8597 ft 266 kts 293°
2026-05-09 19:09 25.69658 -80.23869 8351 ft 264 kts 294°
2026-05-09 19:10 25.70442 -80.25724 8108 ft 262 kts 294°
2026-05-09 19:10 25.71151 -80.27576 7830 ft 259 kts 281°
2026-05-09 19:10 25.71206 -80.29555 7543 ft 258 kts 265°
2026-05-09 19:10 25.71094 -80.31558 7170 ft 262 kts 265°
2026-05-09 19:11 25.70990 -80.33553 6803 ft 265 kts 265°
2026-05-09 19:11 25.70884 -80.35605 6431 ft 269 kts 265°
2026-05-09 19:11 25.70783 -80.37686 6064 ft 272 kts 265°
2026-05-09 19:11 25.70680 -80.39780 5671 ft 271 kts 265°
2026-05-09 19:12 25.70581 -80.41866 5282 ft 269 kts 265°
2026-05-09 19:12 25.70481 -80.43921 5006 ft 263 kts 263°
2026-05-09 19:12 25.70305 -80.45896 5008 ft 255 kts 261°
2026-05-09 19:12 25.70081 -80.47835 5021 ft 252 kts 260°
2026-05-09 19:13 25.69863 -80.49768 5001 ft 253 kts 262°
2026-05-09 19:13 25.69701 -80.51709 4996 ft 253 kts 263°
2026-05-09 19:13 25.69548 -80.53655 5003 ft 253 kts 262°
2026-05-09 19:13 25.69205 -80.55561 5011 ft 252 kts 253°
2026-05-09 19:14 25.68762 -80.57446 5003 ft 253 kts 254°
2026-05-09 19:14 25.68402 -80.59358 4988 ft 254 kts 265°
2026-05-09 19:14 25.68748 -80.61269 4994 ft 257 kts 296°
2026-05-09 19:14 25.69911 -80.62766 4997 ft 262 kts 325°
2026-05-09 19:15 25.71600 -80.63481 4863 ft 261 kts 355°
2026-05-09 19:15 25.73352 -80.63213 4715 ft 253 kts 25°
2026-05-09 19:15 25.74700 -80.62092 4581 ft 242 kts 53°
2026-05-09 19:15 25.75639 -80.60592 4472 ft 232 kts 60°
2026-05-09 19:16 25.76479 -80.59076 4340 ft 229 kts 61°
2026-05-09 19:16 25.77315 -80.57571 4208 ft 230 kts 61°
2026-05-09 19:16 25.78161 -80.56058 4084 ft 231 kts 60°
2026-05-09 19:16 25.78944 -80.54516 4064 ft 229 kts 74°
2026-05-09 19:17 25.79159 -80.52777 3928 ft 228 kts 92°
2026-05-09 19:17 25.79212 -80.51028 3641 ft 230 kts 90°
2026-05-09 19:17 25.79297 -80.49265 3353 ft 227 kts 90°
2026-05-09 19:17 25.79371 -80.47539 3055 ft 220 kts 91°
2026-05-09 19:18 25.79437 -80.45869 2780 ft 213 kts 91°
2026-05-09 19:18 25.79502 -80.44247 2483 ft 208 kts 91°
2026-05-09 19:18 25.79574 -80.42668 2218 ft 202 kts 91°
2026-05-09 19:18 25.79610 -80.41121 1974 ft 198 kts 94°
2026-05-09 19:19 25.79660 -80.39592 1688 ft 198 kts 87°
2026-05-09 19:19 25.79834 -80.38090 1510 ft 193 kts 87°
2026-05-09 19:19 25.79954 -80.36668 1273 ft 183 kts 92°
2026-05-09 19:19 25.79960 -80.35306 1093 ft 161 kts 94°
2026-05-09 19:20 25.79938 -80.34152 872 ft 146 kts 95°
2026-05-09 19:20 25.79927 -80.33063 658 ft 137 kts 91°
2026-05-09 19:20 25.79988 -80.31992 449 ft 143 kts 94°
2026-05-09 19:20 25.80050 -80.30893 214 ft 144 kts 97°
2026-05-09 19:21 25.80073 -80.29822 37 ft 135 kts 92°
2026-05-09 19:21 25.80092 -80.28707 320 ft 162 kts 93°
2026-05-09 19:21 25.80094 -80.27287 920 ft 201 kts 93°
2026-05-09 19:21 25.80478 -80.25769 1965 ft 208 kts 58°
2026-05-09 19:22 25.81633 -80.24794 2986 ft 226 kts 26°
2026-05-09 19:22 25.83300 -80.24499 2791 ft 257 kts 351°
2026-05-09 19:22 25.84830 -80.25356 2876 ft 239 kts 310°
2026-05-09 19:22 25.85721 -80.26760 2934 ft 215 kts 302°
2026-05-09 19:23 25.86406 -80.28141 2971 ft 198 kts 278°
2026-05-09 19:23 25.86460 -80.29629 3006 ft 193 kts 263°
2026-05-09 19:23 25.86400 -80.31123 3001 ft 193 kts 262°
2026-05-09 19:23 25.86331 -80.32610 3000 ft 193 kts 263°
2026-05-09 19:24 25.86255 -80.34094 3049 ft 191 kts 262°
2026-05-09 19:24 25.86177 -80.35601 3343 ft 200 kts 263°
2026-05-09 19:24 25.86095 -80.37152 3560 ft 203 kts 263°
2026-05-09 19:24 25.86004 -80.38734 3803 ft 205 kts 262°
2026-05-09 19:25 25.85914 -80.40316 3986 ft 205 kts 263°
2026-05-09 19:25 25.85818 -80.41884 3985 ft 207 kts 262°
2026-05-09 19:25 25.85847 -80.43480 3979 ft 209 kts 281°
2026-05-09 19:25 25.86265 -80.45026 4001 ft 210 kts 283°
2026-05-09 19:26 25.86680 -80.46592 4014 ft 211 kts 283°
2026-05-09 19:26 25.87091 -80.48160 4011 ft 212 kts 283°
2026-05-09 19:26 25.87504 -80.49740 4007 ft 213 kts 283°
2026-05-09 19:26 25.87913 -80.51324 4006 ft 213 kts 283°
2026-05-09 19:27 25.88321 -80.52898 4003 ft 212 kts 283°
2026-05-09 19:27 25.88729 -80.54468 4018 ft 210 kts 283°
2026-05-09 19:27 25.89136 -80.56016 4019 ft 206 kts 283°
2026-05-09 19:27 25.89342 -80.57520 3997 ft 190 kts 257°
2026-05-09 19:28 25.88750 -80.58760 4000 ft 183 kts 217°
2026-05-09 19:28 25.87582 -80.59253 4005 ft 185 kts 179°
2026-05-09 19:28 25.86346 -80.58846 4012 ft 190 kts 153°
2026-05-09 19:28 25.85192 -80.58155 4004 ft 186 kts 153°
2026-05-09 19:29 25.84074 -80.57482 3982 ft 178 kts 153°
2026-05-09 19:29 25.83009 -80.56840 3985 ft 172 kts 152°
2026-05-09 19:29 25.81962 -80.56208 3983 ft 174 kts 153°
2026-05-09 19:29 25.80889 -80.55563 4014 ft 176 kts 153°
2026-05-09 19:30 25.79811 -80.54886 4002 ft 182 kts 143°
2026-05-09 19:30 25.79203 -80.53696 3987 ft 183 kts 98°
2026-05-09 19:30 25.79196 -80.52259 3819 ft 191 kts 92°
2026-05-09 19:30 25.79243 -80.50798 3608 ft 188 kts 91°
2026-05-09 19:31 25.79299 -80.49361 3370 ft 185 kts 91°
2026-05-09 19:31 25.79355 -80.47952 3119 ft 181 kts 92°
2026-05-09 19:31 25.79409 -80.46555 2883 ft 181 kts 91°
2026-05-09 19:31 25.79463 -80.45179 2657 ft 176 kts 91°
2026-05-09 19:32 25.79516 -80.43837 2413 ft 173 kts 91°
2026-05-09 19:32 25.79569 -80.42519 2190 ft 167 kts 91°
2026-05-09 19:32 25.79621 -80.41264 1978 ft 157 kts 92°
2026-05-09 19:32 25.79668 -80.40069 1753 ft 153 kts 92°
2026-05-09 19:33 25.79716 -80.38906 1564 ft 151 kts 92°
2026-05-09 19:33 25.79759 -80.37767 1370 ft 146 kts 92°
2026-05-09 19:33 25.79804 -80.36660 1180 ft 145 kts 92°
2026-05-09 19:33 25.79850 -80.35536 992 ft 146 kts 92°
2026-05-09 19:34 25.79894 -80.34413 787 ft 146 kts 91°
2026-05-09 19:34 25.79944 -80.33297 622 ft 143 kts 90°
2026-05-09 19:34 25.79998 -80.32193 431 ft 145 kts 94°
2026-05-09 19:34 25.80041 -80.31068 227 ft 144 kts 91°
2026-05-09 19:35 25.80085 -80.29968 45 ft 142 kts 92°
2026-05-09 19:35 25.80121 -80.28991 18 ft 100 kts 88°
2026-05-09 19:35 25.80140 -80.28456 14 ft 38 kts 87°
2026-05-09 19:35 25.80120 -80.28256 13 ft 17 kts 119°
2026-05-09 19:36 25.80053 -80.28183 13 ft 12 kts 152°
2026-05-09 19:36 25.80033 -80.28172 15 ft 0 kts 154°
2026-05-09 19:37 25.80027 -80.28169 14 ft 2 kts 154°
2026-05-09 19:37 25.80000 -80.28154 14 ft 6 kts 154°
2026-05-09 19:38 25.79942 -80.28148 14 ft 10 kts 180°
2026-05-09 19:38 25.79875 -80.28128 14 ft 9 kts 182°
2026-05-09 19:38 25.79838 -80.28130 14 ft 1 kts 183°
2026-05-09 19:38 25.79836 -80.28130 14 ft 0 kts 183°